Location: Culleoka
(33.1312°N, 96.4919°W)
Time: 21:46:24
(UTC+00:00)

Cosmos 1500 Rocket - Pass Details

Date: 11 July 2022
Orbit: 602 x 631 km, 82.5° (Epoch: 13 August)

Event Time Altitude Azimuth Distance (km) Brightness Sun altitude
Exits shadow 08:31:08 52° 3° (N) 789 4.3 -27.9°
Drops below altitude 10° 08:34:31 10° 6° (N) 2,017 7.0 -27.5°
Sets 08:36:46 0° 7° (N) 2,928 8.0 -27.2°
